Location: Bannatyne
(13.0833°N, 59.5333°W)
Time: 17:58:38
(UTC+00:00)

Vanguard 3 - Pass Details

Date: 26 January 2020
Orbit: 508 x 3263 km, 33.3° (Epoch: 22 February)

Event Time Altitude Azimuth Distance (km) Brightness Sun altitude
Rises 00:28:40 0° 294° (WNW) 7,198 12.6 -36.6°
Reaches altitude 10° 00:34:42 10° 303° (WNW) 6,023 12.0 -38.0°
Enters shadow 00:50:08 34° 1° (N) 3,522 10.1 -41.7°
Maximum altitude 00:50:11 34° 2° (N) 3,518 - -41.7°
Drops below altitude 10° 01:00:35 10° 63° (ENE) 4,074 - -44.1°
Sets 01:03:44 0° 73° (ENE) 4,702 - -44.9°
